This is the latest recevied weather packets stored in our database for station/object T10BNorth. If no packets are shown the sender has not sent any weather packets the latest 1 day(s).
| Time | Temp. | Humidity | Pressure | Rain* | Wind** | Luminosity | Snow |
|---|---|---|---|---|---|---|---|
| 1777988548 | 16.11° C | 64% | 1006.8 hPa | 0 mm | 1.34 m/s, 148° | 610 W/m² | - |
| 1777988489 | 16.11° C | 63% | 1006.7 hPa | 0 mm | 1.34 m/s, 146° | 610 W/m² | - |
| 1777988428 | 16.11° C | 64% | 1006.7 hPa | 0 mm | 1.34 m/s, 142° | 612 W/m² | - |
| 1777988370 | 15.56° C | 64% | 1006.7 hPa | 0 mm | 1.34 m/s, 175° | 612 W/m² | - |
| 1777988308 | 15.56° C | 64% | 1006.6 hPa | 0 mm | 1.34 m/s, 173° | 610 W/m² | - |
| 1777988248 | 15.56° C | 63% | 1006.7 hPa | 0 mm | 1.34 m/s, 121° | 606 W/m² | - |
| 1777988188 | 15.56° C | 63% | 1006.6 hPa | 0 mm | 1.34 m/s, 180° | 608 W/m² | - |
| 1777988128 | 15.56° C | 63% | 1006.7 hPa | 0 mm | 1.34 m/s, 227° | 612 W/m² | - |
| 1777988070 | 15.56° C | 64% | 1006.6 hPa | 0 mm | 1.34 m/s, 184° | 610 W/m² | - |
| 1777988008 | 15.56° C | 63% | 1006.6 hPa | 0 mm | 1.34 m/s, 203° | 605 W/m² | - |
| 1777987950 | 15.56° C | 63% | 1006.6 hPa | 0 mm | 1.34 m/s, 169° | 596 W/m² | - |
| 1777987890 | 15.56° C | 62% | 1006.6 hPa | 0 mm | 0.89 m/s, 128° | 584 W/m² | - |
| 1777987832 | 15.56° C | 63% | 1006.6 hPa | 0 mm | 0.89 m/s, 182° | 573 W/m² | - |
| 1777987769 | 15.56° C | 63% | 1006.6 hPa | 0 mm | 0.89 m/s, 143° | 564 W/m² | - |
| 1777987706 | 15.56° C | 63% | 1006.6 hPa | 0 mm | 0.89 m/s, 171° | 554 W/m² | - |
| 1777987645 | 15.56° C | 64% | 1006.6 hPa | 0 mm | 0.89 m/s, 194° | 550 W/m² | - |
| 1777987584 | 15.56° C | 64% | 1006.7 hPa | 0 mm | 0.89 m/s, 355° | 536 W/m² | - |
| 1777987525 | 15.56° C | 64% | 1006.6 hPa | 0 mm | 0.89 m/s, 209° | 533 W/m² | - |
| 1777987470 | 15.56° C | 65% | 1006.6 hPa | 0 mm | 0.89 m/s, 182° | 526 W/m² | - |
| 1777987402 | 15.56° C | 65% | 1006.6 hPa | 0 mm | 0.89 m/s, 182° | 517 W/m² | - |
| 1777987341 | 15.56° C | 64% | 1006.7 hPa | 0 mm | 1.34 m/s, 139° | 510 W/m² | - |
| 1777987282 | 15.56° C | 63% | 1006.6 hPa | 0 mm | 1.34 m/s, 181° | 506 W/m² | - |
| 1777987221 | 15.56° C | 67% | 1006.7 hPa | 0 mm | 1.34 m/s, 176° | 496 W/m² | - |
| 1777987165 | 15° C | 67% | 1006.6 hPa | 0 mm | 1.34 m/s, 150° | 489 W/m² | - |
| 1777987100 | 15° C | 66% | 1006.6 hPa | 0 mm | 1.34 m/s, 137° | 485 W/m² | - |
* Rain latest hour (hover to see other rain measurements)
** Current wind speed in m/s (hover to see current wind gust speed)